When you browse on this site, cookies collect data to enhance your experience and personalize the content and advertising you see.
Visit our Privacy Policy to learn more. By continuing to use the site, you agree to this use of cookies and data.
  • In Latvia
  • List of Countries
  • For 7 days
  • Water Temperature
  • Satellite Maps
  • Weather Map
  • Weather Widgets
  • user-avatar
    Login

    Hourly Weather Elbasan

    Today, 18 July, Thursday

    Time Temperature Precipitation Wind Pressure Humidity
    00:00 +20°C° 0 mm 1 mps 732 mmHg 66%
    01:00 +19°C° 0 mm 2 mps 732 mmHg 65%
    02:00 +18°C° 0 mm 2 mps 732 mmHg 64%
    03:00 +18°C° 0 mm 2 mps 732 mmHg 63%
    04:00 +18°C° 0 mm 2 mps 732 mmHg 63%
    05:00 +21°C° 0 mm 1 mps 732 mmHg 60%
    06:00 +22°C° 0 mm 1 mps 732 mmHg 57%
    07:00 +24°C° 0 mm 1 mps 732 mmHg 54%
    08:00 +26°C° 0 mm 1 mps 733 mmHg 48%
    09:00 +28°C° 0 mm 1 mps 733 mmHg 43%
    10:00 +29°C° 0 mm 1 mps 734 mmHg 37%
    11:00 +30°C° 0 mm 1 mps 734 mmHg 36%
    12:00 +30°C° 0 mm 2 mps 733 mmHg 35%
    13:00 +31°C° 0 mm 3 mps 733 mmHg 34%
    14:00 +30°C° 0 mm 3 mps 733 mmHg 38%
    15:00 +29°C° 0 mm 3 mps 733 mmHg 43%
    16:00 +29°C° 0 mm 3 mps 733 mmHg 47%
    17:00 +27°C° 0.1 mm 2 mps 733 mmHg 55%
    18:00 +25°C° 0.1 mm 1 mps 733 mmHg 64%
    19:00 +21°C° 0.1 mm 0 mps 733 mmHg 72%
    20:00 +23°C° 0 mm 1 mps 733 mmHg 74%
    21:00 +22°C° 0 mm 1 mps 734 mmHg 75%
    22:00 +21°C° 0 mm 1 mps 734 mmHg 77%
    23:00 +21°C° 0 mm 1 mps 734 mmHg 77%

    Tomorrow, 19 July, Friday

    Time Temperature Precipitation Wind Pressure Humidity
    00:00 +21°C° 0 mm 1 mps 734 mmHg 77%
    01:00 +20°C° 0 mm 1 mps 734 mmHg 77%
    02:00 +20°C° 0 mm 1 mps 734 mmHg 76%
    03:00 +20°C° 0 mm 1 mps 734 mmHg 76%
    04:00 +20°C° 0 mm 1 mps 734 mmHg 75%
    05:00 +22°C° 0 mm 1 mps 735 mmHg 70%
    06:00 +23°C° 0 mm 1 mps 735 mmHg 65%
    07:00 +23°C° 0 mm 0 mps 735 mmHg 59%
    08:00 +27°C° 0 mm 1 mps 735 mmHg 54%
    09:00 +28°C° 0 mm 1 mps 736 mmHg 49%
    10:00 +30°C° 0 mm 1 mps 736 mmHg 43%
    11:00 +30°C° 0.1 mm 2 mps 736 mmHg 42%
    12:00 +31°C° 0.1 mm 2 mps 736 mmHg 42%
    13:00 +31°C° 0.1 mm 3 mps 736 mmHg 41%
    14:00 +30°C° 0.7 mm 3 mps 735 mmHg 45%
    15:00 +29°C° 0.7 mm 3 mps 735 mmHg 50%
    16:00 +28°C° 0.7 mm 3 mps 735 mmHg 55%
    17:00 +27°C° 0.5 mm 2 mps 735 mmHg 59%
    18:00 +25°C° 0.5 mm 1 mps 735 mmHg 64%
    19:00 +24°C° 0.5 mm 1 mps 736 mmHg 69%
    20:00 +23°C° 0 mm 1 mps 736 mmHg 70%
    21:00 +22°C° 0 mm 1 mps 736 mmHg 72%
    22:00 +22°C° 0 mm 1 mps 736 mmHg 73%
    23:00 +22°C° 0 mm 1 mps 736 mmHg 73%

    Day after tomorrow, 20 July, Saturday

    Time Temperature Precipitation Wind Pressure Humidity
    00:00 +21°C° 0 mm 1 mps 736 mmHg 73%
    01:00 +21°C° 0 mm 1 mps 736 mmHg 73%
    02:00 +21°C° 0 mm 1 mps 736 mmHg 73%
    03:00 +21°C° 0 mm 1 mps 736 mmHg 73%
    04:00 +20°C° 0 mm 1 mps 736 mmHg 73%
    05:00 +22°C° 0 mm 1 mps 736 mmHg 68%
    06:00 +24°C° 0 mm 1 mps 736 mmHg 64%
    07:00 +24°C° 0 mm 0 mps 737 mmHg 59%
    08:00 +27°C° 0 mm 1 mps 737 mmHg 53%
    09:00 +29°C° 0 mm 1 mps 737 mmHg 47%
    10:00 +31°C° 0 mm 1 mps 737 mmHg 41%
    11:00 +31°C° 0 mm 2 mps 737 mmHg 40%
    12:00 +32°C° 0 mm 2 mps 737 mmHg 39%
    13:00 +33°C° 0 mm 3 mps 737 mmHg 38%
    14:00 +33°C° 0 mm 3 mps 737 mmHg 41%
    15:00 +31°C° 0 mm 3 mps 737 mmHg 44%
    16:00 +30°C° 0 mm 3 mps 737 mmHg 47%
    17:00 +28°C° 0.1 mm 2 mps 737 mmHg 54%
    18:00 +27°C° 0.1 mm 1 mps 737 mmHg 60%
    19:00 +25°C° 0.1 mm 1 mps 737 mmHg 66%
    20:00 +24°C° 0 mm 1 mps 737 mmHg 67%
    21:00 +24°C° 0 mm 1 mps 738 mmHg 68%
    22:00 +23°C° 0 mm 1 mps 738 mmHg 70%
    23:00 +23°C° 0 mm 1 mps 738 mmHg 69%

    21 July, Sunday

    Time Temperature Precipitation Wind Pressure Humidity
    00:00 +23°C° 0 mm 1 mps 738 mmHg 69%
    01:00 +23°C° 0 mm 1 mps 738 mmHg 69%
    02:00 +22°C° 0 mm 1 mps 737 mmHg 69%
    03:00 +22°C° 0 mm 1 mps 737 mmHg 69%
    04:00 +22°C° 0 mm 1 mps 737 mmHg 69%
    05:00 +24°C° 0 mm 1 mps 738 mmHg 65%
    06:00 +26°C° 0 mm 1 mps 738 mmHg 60%
    07:00 +27°C° 0 mm 1 mps 738 mmHg 56%
    08:00 +29°C° 0 mm 1 mps 738 mmHg 50%
    09:00 +31°C° 0 mm 1 mps 739 mmHg 45%
    10:00 +33°C° 0 mm 1 mps 739 mmHg 39%
    11:00 +34°C° 0 mm 1 mps 739 mmHg 37%
    12:00 +35°C° 0 mm 2 mps 739 mmHg 35%
    13:00 +36°C° 0 mm 2 mps 738 mmHg 33%
    14:00 +35°C° 0 mm 3 mps 738 mmHg 37%
    15:00 +34°C° 0 mm 3 mps 738 mmHg 40%
    16:00 +34°C° 0 mm 3 mps 738 mmHg 44%
    17:00 +31°C° 0 mm 2 mps 738 mmHg 50%
    18:00 +29°C° 0 mm 1 mps 738 mmHg 56%
    19:00 +25°C° 0 mm 0 mps 738 mmHg 62%
    20:00 +26°C° 0 mm 1 mps 738 mmHg 64%
    21:00 +25°C° 0 mm 1 mps 738 mmHg 65%
    22:00 +25°C° 0 mm 1 mps 738 mmHg 66%
    23:00 +25°C° 0 mm 1 mps 738 mmHg 65%

    22 July, Monday

    Time Temperature Precipitation Wind Pressure Humidity
    00:00 +24°C° 0 mm 1 mps 738 mmHg 64%
    01:00 +24°C° 0 mm 1 mps 738 mmHg 63%
    02:00 +24°C° 0 mm 2 mps 738 mmHg 61%
    03:00 +24°C° 0 mm 2 mps 737 mmHg 60%
    04:00 +24°C° 0 mm 2 mps 737 mmHg 59%
    05:00 +25°C° 0 mm 2 mps 738 mmHg 55%
    06:00 +27°C° 0 mm 1 mps 738 mmHg 52%
    07:00 +29°C° 0 mm 1 mps 738 mmHg 49%
    08:00 +31°C° 0 mm 1 mps 738 mmHg 43%
    09:00 +33°C° 0 mm 1 mps 738 mmHg 36%
    10:00 +34°C° 0 mm 1 mps 739 mmHg 30%
    11:00 +36°C° 0 mm 2 mps 738 mmHg 29%
    12:00 +37°C° 0 mm 2 mps 738 mmHg 28%
    13:00 +37°C° 0 mm 2 mps 737 mmHg 27%
    14:00 +37°C° 0 mm 3 mps 737 mmHg 29%
    15:00 +36°C° 0 mm 3 mps 737 mmHg 30%
    16:00 +36°C° 0 mm 3 mps 737 mmHg 32%
    17:00 +34°C° 0 mm 2 mps 736 mmHg 39%
    18:00 +30°C° 0 mm 2 mps 736 mmHg 46%
    19:00 +28°C° 0 mm 1 mps 736 mmHg 53%
    20:00 +27°C° 0 mm 1 mps 736 mmHg 54%
    21:00 +26°C° 0 mm 1 mps 736 mmHg 54%
    22:00 +26°C° 0 mm 1 mps 737 mmHg 55%
    23:00 +26°C° 0 mm 1 mps 736 mmHg 55%

    23 July, Tuesday

    Time Temperature Precipitation Wind Pressure Humidity
    00:00 +25°C° 0 mm 2 mps 736 mmHg 55%
    01:00 +25°C° 0 mm 2 mps 736 mmHg 56%
    02:00 +25°C° 0 mm 2 mps 736 mmHg 57%
    03:00 +25°C° 0 mm 2 mps 735 mmHg 58%
    04:00 +24°C° 0 mm 2 mps 735 mmHg 59%
    05:00 +26°C° 0 mm 2 mps 735 mmHg 56%
    06:00 +28°C° 0 mm 2 mps 735 mmHg 54%
    07:00 +30°C° 0 mm 2 mps 736 mmHg 51%
    08:00 +31°C° 0 mm 1 mps 736 mmHg 46%
    09:00 +33°C° 0 mm 1 mps 736 mmHg 40%
    10:00 +35°C° 0 mm 1 mps 736 mmHg 34%
    11:00 +35°C° 0 mm 1 mps 735 mmHg 32%
    12:00 +37°C° 0 mm 2 mps 735 mmHg 31%
    13:00 +38°C° 0 mm 2 mps 735 mmHg 29%
    14:00 +37°C° 0 mm 2 mps 734 mmHg 32%
    15:00 +36°C° 0 mm 3 mps 734 mmHg 35%
    16:00 +35°C° 0 mm 3 mps 734 mmHg 39%
    17:00 +33°C° 0 mm 3 mps 734 mmHg 46%
    18:00 +30°C° 0 mm 2 mps 734 mmHg 53%
    19:00 +28°C° 0 mm 1 mps 733 mmHg 60%
    20:00 +27°C° 0 mm 1 mps 734 mmHg 62%
    21:00 +26°C° 0 mm 1 mps 734 mmHg 65%
    22:00 +25°C° 0 mm 1 mps 734 mmHg 67%
    23:00 +25°C° 0 mm 1 mps 734 mmHg 67%
    Show more